Location: Geelbroek
(52.9503°N, 6.5712°E)
Time: 08:08:07
(UTC+00:00)

Cosmos 2098 Rocket - Pass Details

Date: 15 May 2026
Orbit: 346 x 838 km, 82.9° (Epoch: 5 June)

Event Time Altitude Azimuth Distance (km) Brightness Sun altitude
Exits shadow 20:52:30 10° 173° (S) 2,136 5.3 -10.4°
Reaches altitude 10° 20:52:34 10° 173° (S) 2,111 5.3 -10.4°
Maximum altitude 20:57:08 55° 96° (E) 734 3.2 -10.8°
Drops below altitude 10° 21:01:04 10° 19° (NNE) 1,820 6.0 -11.1°
Sets 21:03:05 0° 15° (NNE) 2,636 6.9 -11.3°
